Radiation Dose at Monitoring Post of Fukushima Daini Nuclear Power Station
Date,Time,MP-1(microSv/h),MP-2(microSv/h),MP-3(microSv/h),MP-4(microSv/h),MP-5(microSv/h),MP-6(microSv/h),MP-7(microSv/h),Wind Direction,Wind Velocity(m/s),Rain
2019/12/26,00:00,0.182,0.165,0.278,0.259,0.255,0.141,0.087,south,4.8,No
2019/12/26,00:10,0.183,0.164,0.278,0.259,0.255,0.141,0.087,south-southwest,5.4,No
2019/12/26,00:20,0.183,0.166,0.279,0.258,0.254,0.141,0.086,south-southwest,4.3,No
2019/12/26,00:30,0.183,0.164,0.278,0.259,0.254,0.141,0.087,southwest,4.7,No
2019/12/26,00:40,0.183,0.164,0.280,0.260,0.253,0.142,0.087,southwest,4.4,No
2019/12/26,00:50,0.183,0.164,0.278,0.260,0.254,0.141,0.087,southwest,4.4,No
2019/12/26,01:00,0.183,0.165,0.280,0.259,0.254,0.141,0.087,southwest,5.1,No
2019/12/26,01:10,0.183,0.164,0.279,0.259,0.254,0.142,0.086,southwest,5.0,No
2019/12/26,01:20,0.183,0.165,0.278,0.258,0.256,0.140,0.087,southwest,5.9,No
2019/12/26,01:30,0.183,0.164,0.279,0.260,0.254,0.142,0.088,south-southwest,5.1,No
2019/12/26,01:40,0.183,0.165,0.278,0.259,0.254,0.142,0.086,south-southwest,4.0,No
2019/12/26,01:50,0.182,0.165,0.277,0.259,0.254,0.142,0.087,south-southwest,2.7,No
2019/12/26,02:00,0.183,0.165,0.279,0.260,0.253,0.142,0.087,south-southeast,3.8,No
2019/12/26,02:10,0.183,0.165,0.278,0.259,0.255,0.141,0.087,south-southeast,2.9,No
2019/12/26,02:20,0.183,0.164,0.278,0.260,0.254,0.141,0.087,south,3.9,No
2019/12/26,02:30,0.183,0.163,0.278,0.259,0.256,0.141,0.086,south,3.9,No
2019/12/26,02:40,0.183,0.164,0.277,0.259,0.254,0.142,0.087,south,3.2,No
2019/12/26,02:50,0.183,0.166,0.279,0.260,0.253,0.141,0.087,south,2.3,No
2019/12/26,03:00,0.182,0.165,0.278,0.261,0.254,0.141,0.087,south,1.4,No
2019/12/26,03:10,0.182,0.163,0.278,0.260,0.254,0.141,0.086,south,2.8,No
2019/12/26,03:20,0.183,0.164,0.280,0.260,0.253,0.142,0.087,south-southwest,2.7,No
2019/12/26,03:30,0.182,0.165,0.278,0.260,0.254,0.142,0.087,south-southwest,3.4,No
2019/12/26,03:40,0.182,0.164,0.279,0.260,0.255,0.142,0.086,west-southwest,2.1,No
2019/12/26,03:50,0.184,0.165,0.278,0.259,0.254,0.141,0.087,west,3.4,No
2019/12/26,04:00,0.182,0.165,0.279,0.260,0.254,0.141,0.087,west-northwest,3.7,No
2019/12/26,04:10,0.182,0.163,0.278,0.261,0.254,0.141,0.087,west,5.4,No
2019/12/26,04:20,0.183,0.164,0.279,0.259,0.254,0.142,0.086,west-northwest,4.5,No
2019/12/26,04:30,0.182,0.164,0.278,0.259,0.256,0.141,0.087,north,2.3,No
2019/12/26,04:40,0.182,0.165,0.280,0.260,0.254,0.142,0.088,northeast,4.0,No
2019/12/26,04:50,0.182,0.164,0.278,0.259,0.254,0.142,0.088,north,2.4,No
2019/12/26,05:00,0.183,0.164,0.279,0.259,0.256,0.141,0.088,northwest,4.0,No
2019/12/26,05:10,0.183,0.165,0.279,0.258,0.255,0.141,0.087,northwest,4.7,No
2019/12/26,05:20,0.183,0.164,0.279,0.260,0.254,0.142,0.087,north-northwest,6.0,No
2019/12/26,05:30,0.182,0.163,0.278,0.261,0.253,0.142,0.087,north-northwest,7.3,No
2019/12/26,05:40,0.182,0.165,0.279,0.258,0.256,0.141,0.087,northwest,6.4,No
2019/12/26,05:50,0.183,0.164,0.277,0.261,0.255,0.142,0.088,north-northwest,4.9,No
2019/12/26,06:00,0.183,0.164,0.279,0.260,0.254,0.142,0.087,north-northwest,5.9,No
2019/12/26,06:10,0.182,0.165,0.279,0.259,0.256,0.142,0.087,north-northwest,5.4,No
2019/12/26,06:20,0.184,0.165,0.279,0.259,0.255,0.141,0.087,north-northwest,5.8,No
2019/12/26,06:30,0.183,0.164,0.278,0.260,0.254,0.141,0.087,north-northwest,7.0,No
2019/12/26,06:40,0.183,0.164,0.278,0.260,0.256,0.142,0.088,north-northwest,7.0,No
2019/12/26,06:50,0.183,0.164,0.278,0.260,0.255,0.142,0.087,north-northwest,6.7,No
2019/12/26,07:00,0.183,0.163,0.277,0.260,0.254,0.142,0.088,north-northwest,6.4,No
2019/12/26,07:10,0.183,0.164,0.278,0.259,0.257,0.141,0.087,north-northwest,5.8,No
2019/12/26,07:20,0.182,0.165,0.279,0.259,0.256,0.142,0.087,north-northwest,6.1,No
2019/12/26,07:30,0.183,0.165,0.278,0.259,0.254,0.142,0.087,north-northwest,6.3,No
2019/12/26,07:40,0.183,0.165,0.278,0.260,0.257,0.141,0.087,north,6.3,No
2019/12/26,07:50,0.182,0.164,0.279,0.259,0.255,0.142,0.087,north-northwest,6.4,No
2019/12/26,08:00,0.183,0.163,0.278,0.260,0.256,0.143,0.088,north-northwest,5.9,No
2019/12/26,08:10,0.184,0.165,0.279,0.260,0.257,0.142,0.088,north-northwest,4.9,No
2019/12/26,08:20,0.183,0.165,0.279,0.259,0.255,0.142,0.087,north-northwest,5.2,No
2019/12/26,08:30,0.182,0.165,0.279,0.258,0.255,0.141,0.087,north-northwest,5.1,No
2019/12/26,08:40,0.184,0.164,0.277,0.259,0.256,0.141,0.087,north-northwest,5.3,No
2019/12/26,08:50,0.182,0.165,0.281,0.259,0.256,0.141,0.086,north-northwest,5.5,No
2019/12/26,09:00,0.182,0.164,0.278,0.259,0.254,0.141,0.086,north-northwest,5.9,No
2019/12/26,09:10,0.182,0.164,0.277,0.257,0.255,0.140,0.087,north-northwest,5.6,No
2019/12/26,09:20,0.183,0.164,0.279,0.258,0.254,0.140,0.087,north,4.6,No
2019/12/26,09:30,0.182,0.163,0.280,0.258,0.255,0.141,0.087,north-northwest,4.6,No
2019/12/26,09:40,0.183,0.162,0.278,0.259,0.255,0.141,0.086,north-northwest,5.3,No
2019/12/26,09:50,0.183,0.163,0.280,0.260,0.253,0.141,0.088,north,4.2,No
2019/12/26,10:00,0.182,0.162,0.279,0.258,0.255,0.142,0.087,north-northwest,5.2,No
2019/12/26,10:10,0.183,0.162,0.278,0.258,0.254,0.142,0.087,north,4.4,No
2019/12/26,10:20,0.182,0.162,0.279,0.259,0.254,0.141,0.087,north,4.1,No
2019/12/26,10:30,0.183,0.161,0.279,0.259,0.255,0.141,0.087,north,4.7,No
2019/12/26,10:40,0.184,0.162,0.280,0.258,0.254,0.141,0.087,north,5.2,No
2019/12/26,10:50,0.182,0.162,0.280,0.259,0.255,0.140,0.087,north,4.3,No
2019/12/26,11:00,0.183,0.162,0.278,0.258,0.253,0.141,0.086,north,6.0,No
2019/12/26,11:10,0.183,0.165,0.279,0.259,0.256,0.140,0.087,north,5.5,No
2019/12/26,11:20,0.183,0.164,0.279,0.261,0.254,0.141,0.087,north,4.1,No
2019/12/26,11:30,0.184,0.165,0.279,0.258,0.254,0.141,0.086,north,4.5,No
2019/12/26,11:40,0.184,0.165,0.279,0.260,0.256,0.141,0.087,north,5.0,No
2019/12/26,11:50,0.182,0.165,0.279,0.260,0.252,0.142,0.086,north,3.9,No
2019/12/26,12:00,0.184,0.164,0.277,0.259,0.255,0.141,0.087,north,3.3,No
2019/12/26,12:10,0.182,0.164,0.279,0.260,0.254,0.141,0.087,north,3.0,No
2019/12/26,12:20,0.183,0.164,0.277,0.259,0.253,0.142,0.087,north-northwest,2.8,No
2019/12/26,12:30,0.184,0.164,0.277,0.259,0.254,0.142,0.086,north,4.1,No
2019/12/26,12:40,0.182,0.166,0.278,0.259,0.255,0.141,0.087,north-northwest,4.3,Yes
2019/12/26,12:50,0.183,0.166,0.279,0.260,0.256,0.142,0.088,north,4.4,Yes
2019/12/26,13:00,0.185,0.166,0.280,0.262,0.256,0.142,0.088,north-northwest,5.2,Yes
2019/12/26,13:10,0.185,0.167,0.281,0.261,0.256,0.144,0.089,north-northwest,4.8,Yes
2019/12/26,13:20,0.186,0.167,0.279,0.261,0.256,0.143,0.089,north-northwest,4.7,Yes
2019/12/26,13:30,0.187,0.169,0.283,0.261,0.256,0.145,0.090,north-northwest,4.6,Yes
2019/12/26,13:40,0.188,0.170,0.283,0.264,0.258,0.145,0.091,north-northwest,4.5,Yes
2019/12/26,13:50,0.188,0.171,0.282,0.263,0.258,0.147,0.091,north-northwest,3.8,Yes
2019/12/26,14:00,0.188,0.169,0.282,0.264,0.257,0.146,0.092,north-northwest,4.5,Yes
2019/12/26,14:10,0.187,0.169,0.281,0.263,0.257,0.145,0.091,north-northwest,4.8,No
2019/12/26,14:20,0.187,0.168,0.281,0.261,0.257,0.146,0.091,north-northwest,4.3,Yes
2019/12/26,14:30,0.187,0.168,0.280,0.262,0.256,0.145,0.090,north-northwest,5.3,Yes
2019/12/26,14:40,0.186,0.168,0.280,0.263,0.256,0.145,0.090,north-northwest,5.5,Yes
2019/12/26,14:50,0.185,0.167,0.281,0.260,0.256,0.144,0.090,north-northwest,6.3,Yes
2019/12/26,15:00,0.185,0.166,0.279,0.260,0.256,0.144,0.090,north-northwest,6.2,Yes
2019/12/26,15:10,0.186,0.167,0.280,0.262,0.255,0.144,0.089,northwest,5.4,Yes
2019/12/26,15:20,0.185,0.166,0.280,0.260,0.256,0.144,0.089,northwest,5.9,Yes
2019/12/26,15:30,0.186,0.167,0.280,0.261,0.256,0.145,0.091,northwest,5.4,Yes
2019/12/26,15:40,0.185,0.167,0.281,0.262,0.255,0.145,0.090,northwest,6.3,Yes
2019/12/26,15:50,0.185,0.168,0.280,0.262,0.255,0.145,0.089,northwest,6.3,Yes
2019/12/26,16:00,0.186,0.167,0.282,0.261,0.257,0.146,0.091,north-northwest,6.1,Yes
2019/12/26,16:10,0.186,0.168,0.281,0.262,0.258,0.146,0.090,northwest,6.1,Yes
2019/12/26,16:20,0.188,0.169,0.281,0.263,0.257,0.147,0.092,north-northwest,6.8,Yes
2019/12/26,16:30,0.188,0.170,0.283,0.263,0.258,0.148,0.093,north-northwest,7.1,Yes
2019/12/26,16:40,0.188,0.171,0.282,0.264,0.257,0.148,0.094,northwest,7.0,Yes
2019/12/26,16:50,0.189,0.169,0.282,0.262,0.259,0.148,0.093,north-northwest,6.8,Yes
2019/12/26,17:00,0.187,0.168,0.283,0.264,0.258,0.147,0.092,north-northwest,6.1,Yes
2019/12/26,17:10,0.187,0.169,0.281,0.263,0.257,0.147,0.092,north-northwest,7.1,Yes
2019/12/26,17:20,0.187,0.169,0.282,0.261,0.257,0.146,0.091,north-northwest,7.1,Yes
2019/12/26,17:30,0.186,0.167,0.282,0.261,0.256,0.146,0.090,north-northwest,6.8,Yes
2019/12/26,17:40,0.187,0.167,0.280,0.261,0.256,0.144,0.090,north-northwest,6.2,Yes
2019/12/26,17:50,0.185,0.167,0.280,0.258,0.256,0.144,0.088,north-northwest,7.0,Yes
2019/12/26,18:00,0.185,0.166,0.281,0.260,0.254,0.142,0.089,north-northwest,7.3,No
2019/12/26,18:10,0.185,0.166,0.278,0.260,0.253,0.143,0.088,northwest,7.0,No
2019/12/26,18:20,0.184,0.165,0.278,0.258,0.254,0.142,0.089,northwest,7.3,No
2019/12/26,18:30,0.183,0.164,0.277,0.258,0.255,0.141,0.087,northwest,7.3,Yes
2019/12/26,18:40,0.183,0.164,0.278,0.257,0.253,0.141,0.087,northwest,6.4,No
2019/12/26,18:50,0.182,0.163,0.278,0.258,0.252,0.141,0.088,north-northwest,6.5,Yes
2019/12/26,19:00,0.181,0.164,0.276,0.256,0.252,0.140,0.087,northwest,6.1,Yes
2019/12/26,19:10,0.182,0.163,0.277,0.256,0.252,0.141,0.086,north-northwest,5.7,No
2019/12/26,19:20,0.182,0.163,0.276,0.256,0.251,0.140,0.087,north-northwest,5.9,No
2019/12/26,19:30,0.183,0.163,0.276,0.256,0.253,0.140,0.087,northwest,5.6,No
2019/12/26,19:40,0.181,0.163,0.276,0.257,0.253,0.140,0.086,northwest,6.2,No
2019/12/26,19:50,0.182,0.163,0.277,0.256,0.252,0.140,0.087,north-northwest,6.4,No
2019/12/26,20:00,0.182,0.163,0.278,0.257,0.252,0.140,0.086,northwest,6.8,No
2019/12/26,20:10,0.181,0.162,0.274,0.256,0.251,0.140,0.085,north-northwest,5.3,No
2019/12/26,20:20,0.181,0.164,0.275,0.256,0.252,0.140,0.086,northwest,6.0,No
2019/12/26,20:30,0.182,0.163,0.277,0.257,0.251,0.140,0.086,northwest,6.2,No
2019/12/26,20:40,0.181,0.162,0.276,0.256,0.252,0.139,0.086,northwest,6.4,No
2019/12/26,20:50,0.182,0.163,0.275,0.257,0.252,0.139,0.086,northwest,7.5,No
2019/12/26,21:00,0.182,0.163,0.275,0.256,0.251,0.139,0.086,northwest,7.0,No
2019/12/26,21:10,0.182,0.163,0.277,0.257,0.252,0.140,0.086,northwest,5.9,No
2019/12/26,21:20,0.181,0.162,0.276,0.258,0.252,0.140,0.086,northwest,6.3,No
2019/12/26,21:30,0.181,0.163,0.275,0.256,0.252,0.139,0.085,northwest,6.3,No
2019/12/26,21:40,0.183,0.163,0.276,0.256,0.252,0.139,0.085,north-northwest,6.0,No
2019/12/26,21:50,0.181,0.163,0.278,0.257,0.252,0.139,0.086,northwest,5.9,No
2019/12/26,22:00,0.180,0.163,0.276,0.256,0.253,0.138,0.086,northwest,5.6,No
2019/12/26,22:10,0.182,0.163,0.276,0.256,0.252,0.139,0.085,north-northwest,5.8,No
2019/12/26,22:20,0.181,0.163,0.277,0.257,0.253,0.140,0.086,north-northwest,6.2,No
2019/12/26,22:30,0.182,0.161,0.277,0.257,0.252,0.140,0.085,northwest,5.6,No
2019/12/26,22:40,0.181,0.162,0.276,0.256,0.253,0.140,0.086,northwest,5.9,No
2019/12/26,22:50,0.181,0.163,0.276,0.258,0.252,0.140,0.086,northwest,4.6,No
2019/12/26,23:00,0.182,0.161,0.277,0.256,0.253,0.139,0.086,north-northwest,4.6,No
2019/12/26,23:10,0.181,0.162,0.275,0.257,0.252,0.140,0.086,northwest,4.1,No
2019/12/26,23:20,0.183,0.162,0.276,0.256,0.253,0.139,0.086,northwest,2.8,No
2019/12/26,23:30,0.182,0.163,0.277,0.256,0.252,0.138,0.086,north-northwest,3.3,Yes
2019/12/26,23:40,0.182,0.163,0.277,0.258,0.254,0.141,0.086,north-northwest,5.1,Yes
2019/12/26,23:50,0.184,0.165,0.277,0.259,0.253,0.143,0.089,north-northwest,5.5,Yes
